Regional Weather Roundup
Issued by NWS

Home | Current Version | Previous Version | Graphics & Text | Print | Product List | Glossary On
Versions: 1 2 3 4 5 6 7 8 9 10 11 12 13 14 15 16 17 18 19 20 21 22 23 24 25 26 27 28 29 30 31 32 33 34 35 36 37 38 39 40 41 42 43 44 45 46 47 48 49 50
000
ASUS43 KOAX 200602
RWRNE

WEATHER ROUNDUP FOR NEBRASKA
NATIONAL WEATHER SERVICE OMAHA NE
100 AM CDT THU JUL 20 2017

NOTES: SATELLITE DATA IS BEING USED TO AUGMENT CLOUD COVER ABOVE
       12000 FEET.
       "FAIR" INDICATES FEW OR NO CLOUDS BELOW 12,000 FEET WITH NO
       SIGNIFICANT WEATHER AND/OR OBSTRUCTIONS TO VISIBILITY.


NEZ001>004-019>022-054>056-200700-
NEBRASKA PANHANDLE

CITY           SKY/WX    TMP DP  RH WIND       PRES   REMARKS
SCOTTSBLUFF    LGT RAIN  68  64  87 N12       30.15F
6HR MIN TEMP:  68; 6HR MAX TEMP: 102; 6HR PCP:  0.05;

ALLIANCE       LGT RAIN  67  65  93 W21G30    30.11F
6HR MIN TEMP:  65; 6HR MAX TEMP: 103; 6HR PCP:  0.23;

CHADRON        LGT RAIN  79  57  46 NW7       30.09R
6HR MIN TEMP:  78; 6HR MAX TEMP:  95; 6HR PCP: TRACE;

GORDON         FAIR      77  67  71 NE10      30.05S THUNDER
6HR MIN TEMP:  76; 6HR MAX TEMP:  92;

SIDNEY         CLOUDY    73  61  65 N15       30.12R
6HR MIN TEMP:  73; 6HR MAX TEMP:  96; 6HR PCP: TRACE;

$$

NEZ057>060-069>072-079>082-200700-
SOUTHWEST NEBRASKA

CITY           SKY/WX    TMP DP  RH WIND       PRES   REMARKS
NORTH PLATTE   CLOUDY    85  58  39 N16G23    30.01R
6HR MIN TEMP:  85; 6HR MAX TEMP: 100;

IMPERIAL       MOCLDY    79  58  48 W8        30.03R
6HR MIN TEMP:  79; 6HR MAX TEMP: 102;

LEXINGTON      CLOUDY    80  62  54 S8        30.01R
MCCOOK         CLOUDY    82  58  43 S13       29.98R
6HR MIN TEMP:  82; 6HR MAX TEMP: 102;

OGALLALA       CLOUDY    84  62  47 N10G24    30.02R
$$

NEZ005>010-023>029-035>040-094-200700-
NORTH CENTRAL NEBRASKA

CITY           SKY/WX    TMP DP  RH WIND       PRES   REMARKS
VALENTINE      CLOUDY    76  66  71 CALM      30.00R
6HR MIN TEMP:  76; 6HR MAX TEMP:  94;

AINSWORTH      CLOUDY    76  65  69 SW8       30.02R
BROKEN BOW     CLOUDY    80  67  64 E12       30.05R
6HR MIN TEMP:  79; 6HR MAX TEMP:  99;

O`NEILL        CLOUDY    88  56  34 SE5G23    29.90F
ORD            CLOUDY    79  64  60 CALM      30.02S
6HR MIN TEMP:  76; 6HR MAX TEMP:  96;

THEDFORD       CLOUDY    74  66  76 SE8       30.08S
$$

NEZ041-046>049-061>064-073>077-083>087-200700-
SOUTH CENTRAL NEBRASKA

CITY           SKY/WX    TMP DP  RH WIND       PRES   REMARKS
GRAND ISLAND   CLOUDY    81  66  60 S10       29.99R
6HR MIN TEMP:  80; 6HR MAX TEMP:  94;

AURORA         CLOUDY    80  65  61 S8        29.99R
HASTINGS       CLEAR     77  64  64 S9        29.99S
6HR MIN TEMP:  77; 6HR MAX TEMP:  93;

HEBRON         CLEAR     82  70  67 S8        29.99R
HOLDREGE       CLEAR     77  62  61 S8        30.01R
KEARNEY        CLOUDY    83  63  50 S15       30.00R
YORK           CLEAR     77  68  73 S6        29.98R
$$

NEZ011>018-030>034-042>045-200700-
NORTHEAST NEBRASKA

CITY           SKY/WX    TMP DP  RH WIND       PRES   REMARKS
NORFOLK        CLOUDY    81  75  82 W7        30.00R
6HR MIN TEMP:  80; 6HR MAX TEMP:  90;

ALBION         CLOUDY    84  74  72 N12G18    30.02R HX  90
BLAIR          CLOUDY    82  71  70 S5        29.97R
COLUMBUS       CLOUDY    86  67  52 W7        29.98R
FREMONT        MOCLDY    82  71  71 CALM      29.97R
TEKAMAH        MOCLDY    81  77  88 S9        29.93F
6HR MIN TEMP:  81; 6HR MAX TEMP:  92;

WAYNE          MOCLDY    84  80  87 S28G35    29.89F HX  98
$$

NEZ050>053-065>068-078-088>093-200700-
SOUTHEAST NEBRASKA

CITY           SKY/WX    TMP DP  RH WIND       PRES   REMARKS
LINCOLN        CLOUDY    85  70  60 S14       29.96R
6HR MIN TEMP:  84; 6HR MAX TEMP:  94;

OMAHA EPPLEY   CLOUDY    86  72  62 S10       29.94S HX  92
6HR MIN TEMP:  86; 6HR MAX TEMP:  95;

BEATRICE       CLEAR     83  69  63 S10       29.98R
FALLS CITY     CLOUDY    81  72  74 S9        29.98R
6HR MIN TEMP:  81; 6HR MAX TEMP:  91;

NEBRASKA CITY  CLOUDY    79  75  87 S12       29.97S
PLATTSMOUTH    CLOUDY    81  71  72 S8        29.97R
$$

NEZ044-045-051>053-067-200700-
OMAHA AREA

CITY           SKY/WX    TMP DP  RH WIND       PRES   REMARKS
OMAHA EPPLEY   CLOUDY    86  72  62 S10       29.94S HX  92
6HR MIN TEMP:  86; 6HR MAX TEMP:  95;

BLAIR          CLOUDY    82  71  70 S5        29.97R
FREMONT        MOCLDY    82  71  71 CALM      29.97R
MILLARD        CLOUDY    85  74  68 S7        29.95R HX  92
OFFUTT AFB     CLOUDY    80  73  79 SE6       29.95S
PLATTSMOUTH    CLOUDY    81  71  72 S8        29.97R
WAHOO          FAIR      82  69  65 CALM      29.96R
$$




USA.gov is the U.S. government's official web portal to all federal, state and local government web resources and services.